GW5874 Weather Reports


time (UTC)temp
C
wind
direction
speed
KPH
gust
KPH
rain 1hr
cm
rain 24hr
cm
rain mn
cm
humidity
%
barometer
mb
20260510180512 20 299 3.2 4.8 0.00 0.00 0.00 59 1019.3
20260510180009 20 159 1.6 1.6 0.00 0.00 0.00 61 1019.2
20260510175504 20 161 4.8 6.4 0.00 0.00 0.00 60 1018.9
20260510175000 20 157 8.0 11.3 0.00 0.00 0.00 60 1018.8
20260510174458 20 347 3.2 4.8 0.00 0.00 0.00 64 1018.7
20260510173955 20 189 6.4 8.0 0.00 0.00 0.00 63 1018.9
20260510173451 20 68 4.8 6.4 0.00 0.00 0.00 62 1018.9
20260510172947 20 59 4.8 6.4 0.00 0.00 0.00 64 1018.8
20260510172443 20 81 4.8 6.4 0.00 0.00 0.00 61 1018.7
20260510171940 20 259 4.8 6.4 0.00 0.00 0.00 61 1018.9
20260510171437 20 256 3.2 4.8 0.00 0.00 0.00 63 1018.6
20260510170933 20 346 6.4 8.0 0.00 0.00 0.00 62 1019.0
20260510170430 20 273 1.6 1.6 0.00 0.00 0.00 65 1018.7
20260510165925 20 82 6.4 11.3 0.00 0.00 0.00 64 1018.8
20260510165422 20 225 3.2 4.8 0.00 0.00 0.00 66 1018.7
20260510164919 20 306 1.6 4.8 0.00 0.00 0.00 66 1018.7
20260510164416 20 83 3.2 4.8 0.00 0.00 0.00 69 1018.9
20260510163911 20 244 4.8 6.4 0.00 0.00 0.00 68 1018.5
20260510163408 20 107 16.1 25.7 0.00 0.00 0.00 68 1018.4
20260510162907 20 310 8.0 11.3 0.00 0.00 0.00 68 1018.6
20260510162405 19 261 0.0 1.6 0.00 0.00 0.00 70 1018.4
20260510161901 19 82 1.6 4.8 0.00 0.00 0.00 72 1018.4
20260510161356 18 23 4.8 8.0 0.00 0.00 0.00 71 1018.2
20260510160854 18 268 0.0 1.6 0.00 0.00 0.00 72 1017.9
20260510160351 18 341 3.2 6.4 0.00 0.00 0.00 72 1018.1
20260510155849 18 73 1.6 4.8 0.00 0.00 0.00 72 1018.2
20260510155347 18 62 3.2 4.8 0.00 0.00 0.00 72 1018.1
20260510154843 18 160 3.2 4.8 0.00 0.00 0.00 72 1017.9
20260510154339 18 190 0.0 1.6 0.00 0.00 0.00 73 1017.7
20260510153833 18 230 0.0 1.6 0.00 0.00 0.00 73 1017.6
20260510153329 18 67 8.0 12.9 0.00 0.00 0.00 71 1017.5
20260510152826 18 309 3.2 4.8 0.00 0.00 0.00 74 1017.4
20260510152323 18 236 3.2 4.8 0.00 0.00 0.00 73 1017.2
20260510151820 18 115 6.4 8.0 0.00 0.00 0.00 72 1017.4
20260510151318 18 306 4.8 6.4 0.00 0.00 0.00 72 1017.2
20260510150814 18 118 6.4 8.0 0.00 0.00 0.00 73 1017.2
20260510150309 18 301 8.0 12.9 0.00 0.00 0.00 73 1017.1
20260510145806 18 167 3.2 6.4 0.00 0.00 0.00 73 1017.2
20260510145305 18 228 8.0 11.3 0.00 0.00 0.00 74 1017.1
20260510144759 18 273 1.6 1.6 0.00 0.00 0.00 75 1017.1
20260510144256 18 306 0.0 0.0 0.00 0.00 0.00 78 1017.0
20260510143755 18 231 0.0 1.6 0.00 0.00 0.00 79 1017.3
20260510143251 18 283 0.0 1.6 0.00 0.00 0.00 77 1017.4
20260510142748 18 1 0.0 0.0 0.00 0.00 0.00 77 1017.6
20260510142245 18 302 1.6 1.6 0.00 0.00 0.00 78 1017.5
20260510141742 18 273 0.0 0.0 0.00 0.00 0.00 76 1017.5
20260510141240 18 242 0.0 1.6 0.00 0.00 0.00 77 1017.5
20260510140737 18 98 0.0 0.0 0.00 0.00 0.00 77 1017.4
20260510140232 18 260 0.0 0.0 0.00 0.00 0.00 76 1017.2
20260510135732 18 285 0.0 0.0 0.00 0.00 0.00 78 1017.4
20260510135227 18 257 0.0 0.0 0.00 0.00 0.00 77 1017.4
20260510134725 18 245 0.0 0.0 0.00 0.00 0.00 78 1017.3
20260510134222 18 320 3.2 4.8 0.00 0.00 0.00 77 1017.0
20260510133718 18 241 0.0 0.0 0.00 0.00 0.00 76 1017.0
20260510133214 18 332 0.0 1.6 0.00 0.00 0.00 77 1017.0
20260510132710 18 280 4.8 6.4 0.00 0.00 0.00 76 1017.0
20260510132208 18 331 0.0 0.0 0.00 0.00 0.00 78 1016.9
20260510131705 18 258 0.0 0.0 0.00 0.00 0.00 77 1016.8
20260510131203 18 276 1.6 1.6 0.00 0.00 0.00 77 1016.7
20260510130659 18 285 0.0 0.0 0.00 0.00 0.00 79 1016.5
20260510130156 18 231 0.0 0.0 0.00 0.00 0.00 83 1016.3
20260510125652 16 296 0.0 0.0 0.00 0.00 0.00 86 1016.1
20260510125148 16 313 0.0 0.0 0.00 0.00 0.00 89 1015.9
20260510124646 15 132 0.0 0.0 0.00 0.00 0.00 90 1015.8
20260510124142 15 114 1.6 1.6 0.00 0.00 0.00 91 1015.8
20260510123637 15 115 0.0 0.0 0.00 0.00 0.00 95 1015.7
20260510123134 15 281 0.0 0.0 0.00 0.00 0.00 97 1015.7
20260510122630 14 280 0.0 0.0 0.00 0.00 0.00 97 1015.7
20260510122126 13 280 0.0 0.0 0.00 0.00 0.00 97 1015.7
20260510121623 12 281 0.0 0.0 0.00 0.00 0.00 97 1015.5
20260510121120 12 281 0.0 0.0 0.00 0.00 0.00 96 1015.4
20260510120618 12 263 0.0 0.0 0.00 0.00 0.00 96 1015.5
20260510120113 12 309 0.0 1.6 0.00 0.00 0.00 96 1015.4
20260510115610 12 241 0.0 0.0 0.00 0.00 0.00 96 1015.2
20260510115108 12 259 0.0 0.0 0.00 0.00 0.00 96 1015.2
20260510114603 12 313 1.6 1.6 0.00 0.00 0.00 96 1015.1
20260510114100 12 255 0.0 0.0 0.00 0.00 0.00 96 1014.8
20260510113554 12 254 0.0 0.0 0.00 0.00 0.00 96 1014.9
20260510113053 12 255 0.0 0.0 0.00 0.00 0.00 95 1014.5
20260510112549 12 211 0.0 0.0 0.00 0.00 0.00 95 1014.5
20260510112045 12 337 1.6 1.6 0.00 0.00 0.00 95 1014.6
20260510111542 12 268 0.0 1.6 0.00 0.00 0.00 95 1014.5
20260510111038 12 292 0.0 0.0 0.00 0.00 0.00 95 1014.6
20260510110534 12 244 0.0 0.0 0.00 0.00 0.00 94 1014.4
20260510110031 12 253 0.0 0.0 0.00 0.00 0.00 94 1014.4
20260510105526 13 254 0.0 0.0 0.00 0.00 0.00 94 1014.5
20260510105021 13 277 0.0 1.6 0.00 0.00 0.00 94 1014.6
20260510104518 12 277 0.0 0.0 0.00 0.00 0.00 94 1014.7
20260510104014 13 276 0.0 0.0 0.00 0.00 0.00 94 1014.5
20260510103512 13 276 0.0 0.0 0.00 0.00 0.00 93 1014.4
20260510103008 13 213 1.6 1.6 0.00 0.00 0.00 93 1014.4
20260510102504 13 248 0.0 1.6 0.00 0.00 0.00 93 1014.6
20260510102000 13 324 1.6 1.6 0.00 0.00 0.00 93 1014.3
20260510101458 13 281 0.0 0.0 0.00 0.00 0.00 92 1014.4
20260510100956 13 276 0.0 1.6 0.00 0.00 0.00 92 1014.4
20260510100452 13 301 0.0 0.0 0.00 0.00 0.00 92 1014.5
20260510095948 13 300 0.0 0.0 0.00 0.00 0.00 91 1014.6
20260510095444 13 250 0.0 0.0 0.00 0.00 0.00 90 1014.4
20260510094943 14 334 1.6 1.6 0.00 0.00 0.00 89 1014.2
20260510094438 14 328 1.6 1.6 0.00 0.00 0.00 89 1014.5
20260510093934 14 299 0.0 0.0 0.00 0.00 0.00 88 1014.4
20260510093430 15 227 0.0 0.0 0.00 0.00 0.00 88 1014.4
20260510092927 15 293 0.0 1.6 0.00 0.00 0.00 87 1014.2
20260510092425 15 271 0.0 0.0 0.00 0.00 0.00 87 1014.2
20260510091924 15 247 0.0 0.0 0.00 0.00 0.00 86 1014.1
20260510091421 15 237 1.6 1.6 0.00 0.00 0.00 86 1013.8
20260510090918 15 168 0.0 1.6 0.00 0.00 0.00 87 1013.9
20260510090414 15 244 0.0 0.0 0.00 0.00 0.00 86 1013.8
20260510085910 15 281 0.0 0.0 0.00 0.00 0.00 85 1013.5
20260510085405 14 296 0.0 1.6 0.00 0.00 0.00 91 1013.4
20260510084900 13 227 0.0 0.0 0.00 0.00 0.00 92 1013.2
20260510084359 14 227 0.0 0.0 0.00 0.00 0.00 93 1013.4
20260510083855 14 77 0.0 0.0 0.00 0.00 0.00 94 1013.4
20260510083352 14 259 0.0 0.0 0.00 0.00 0.00 94 1013.3
20260510082847 13 322 1.6 1.6 0.00 0.00 0.00 95 1013.2
20260510082345 13 306 3.2 4.8 0.00 0.00 0.00 95 1013.2
20260510081844 13 266 0.0 0.0 0.00 0.00 0.00 95 1013.0
20260510081340 13 262 0.0 0.0 0.00 0.00 0.00 95 1013.2
20260510080837 13 237 0.0 0.0 0.00 0.00 0.00 95 1012.7
20260510080330 13 217 0.0 0.0 0.00 0.00 0.00 95 1012.5
20260510075828 13 272 0.0 0.0 0.00 0.00 0.00 95 1012.2
20260510075325 13 276 0.0 0.0 0.00 0.00 0.00 94 1012.4
20260510074822 13 276 0.0 0.0 0.00 0.00 0.00 94 1012.2
20260510074319 13 248 0.0 0.0 0.00 0.00 0.00 94 1012.4
20260510073815 13 247 0.0 0.0 0.00 0.00 0.00 94 1012.4
20260510073311 14 319 0.0 0.0 0.00 0.00 0.00 94 1012.3
20260510072807 14 319 1.6 1.6 0.00 0.00 0.00 94 1012.6
20260510072306 14 320 1.6 1.6 0.00 0.00 0.00 94 1012.6
20260510071800 13 318 3.2 4.8 0.00 0.00 0.00 95 1012.5
20260510071257 13 267 0.0 0.0 0.00 0.00 0.00 95 1012.5
20260510070756 13 246 0.0 0.0 0.00 0.00 0.00 94 1012.4
20260510070253 13 258 1.6 1.6 0.00 0.00 0.00 94 1012.3
20260510065752 13 270 1.6 1.6 0.00 0.00 0.00 94 1012.4
20260510065249 13 263 0.0 0.0 0.00 0.00 0.00 94 1012.3
20260510064746 13 230 0.0 0.0 0.00 0.00 0.00 94 1012.5
20260510064244 13 230 0.0 0.0 0.00 0.00 0.00 94 1012.8
20260510063739 13 230 0.0 0.0 0.00 0.00 0.00 94 1012.7
20260510063236 13 230 0.0 0.0 0.00 0.00 0.00 94 1013.2
20260510062732 13 230 0.0 0.0 0.00 0.00 0.00 94 1013.1
20260510062229 13 230 0.0 0.0 0.00 0.00 0.00 94 1013.3
20260510061724 13 230 0.0 1.6 0.00 0.00 0.00 94 1013.5
20260510061222 13 263 0.0 0.0 0.00 0.00 0.00 94 1013.3
20260510060718 13 263 0.0 0.0 0.00 0.00 0.00 94 1013.4
20260510060214 13 262 0.0 0.0 0.00 0.00 0.00 94 1013.3
20260510055711 13 262 0.0 0.0 0.00 0.00 0.00 94 1013.4
20260510055209 13 262 0.0 0.0 0.00 0.00 0.00 94 1013.4
20260510054704 13 262 0.0 0.0 0.00 0.00 0.00 94 1013.5
20260510054200 13 279 0.0 0.0 0.00 0.00 0.00 94 1013.6
20260510053700 13 293 1.6 1.6 0.00 0.00 0.00 94 1013.5
20260510053157 13 231 0.0 0.0 0.00 0.00 0.00 94 1013.7
20260510052652 13 231 0.0 0.0 0.00 0.00 0.00 94 1013.5
20260510052148 13 230 0.0 0.0 0.00 0.00 0.00 93 1013.7
20260510051644 13 231 0.0 0.0 0.00 0.00 0.00 93 1013.7
20260510051141 13 234 0.0 0.0 0.00 0.00 0.00 93 1013.5
20260510050638 13 250 0.0 0.0 0.00 0.00 0.00 93 1013.3
20260510050136 13 264 0.0 0.0 0.00 0.00 0.00 92 1013.5
20260510045632 13 247 0.0 0.0 0.00 0.00 0.00 92 1013.3
20260510045129 13 286 0.0 0.0 0.00 0.00 0.00 92 1013.2
20260510044625 13 282 0.0 0.0 0.00 0.00 0.00 92 1013.3
20260510044122 13 278 1.6 1.6 0.00 0.00 0.00 92 1013.0
20260510043618 13 262 0.0 0.0 0.00 0.00 0.00 92 1013.1
20260510043115 13 261 0.0 0.0 0.00 0.00 0.00 92 1013.2
20260510042613 13 299 0.0 0.0 0.00 0.00 0.00 91 1013.3
20260510042108 13 263 0.0 0.0 0.00 0.00 0.00 91 1012.8
20260510041605 13 263 0.0 0.0 0.00 0.00 0.00 91 1013.1
20260510041103 13 263 0.0 0.0 0.00 0.00 0.00 91 1012.8
20260510040600 13 305 0.0 0.0 0.00 0.00 0.00 91 1012.8
20260510040055 13 257 0.0 0.0 0.00 0.00 0.00 91 1013.1
20260510035552 13 292 0.0 0.0 0.00 0.00 0.00 91 1013.0
20260510035051 13 301 0.0 0.0 0.00 0.00 0.00 91 1012.5
20260510034550 13 244 0.0 0.0 0.00 0.00 0.00 91 1013.0
20260510034046 13 244 0.0 0.0 0.00 0.00 0.00 91 1012.6
20260510033542 13 244 0.0 0.0 0.00 0.00 0.00 91 1012.5
20260510033041 13 245 0.0 0.0 0.00 0.00 0.00 90 1012.3
20260510032537 13 245 0.0 0.0 0.00 0.00 0.00 89 1012.4
20260510032032 13 245 0.0 0.0 0.00 0.00 0.00 89 1012.2
20260510031527 13 244 0.0 0.0 0.00 0.00 0.00 88 1012.2
20260510031023 14 244 0.0 0.0 0.00 0.00 0.00 88 1012.1
20260510030519 14 215 0.0 0.0 0.00 0.00 0.00 88 1012.2
20260510030017 14 217 0.0 0.0 0.00 0.00 0.00 88 1012.0
20260510025513 15 255 0.0 0.0 0.00 0.00 0.00 89 1011.9
20260510025011 15 255 0.0 0.0 0.00 0.00 0.00 89 1011.9
20260510024508 15 255 0.0 0.0 0.00 0.00 0.00 89 1011.9
20260510024004 15 255 0.0 0.0 0.00 0.00 0.00 88 1011.8
20260510023500 15 255 0.0 0.0 0.00 0.00 0.00 88 1011.8
20260510022957 15 255 0.0 0.0 0.00 0.00 0.00 88 1011.6
20260510022456 15 255 0.0 0.0 0.00 0.00 0.00 88 1011.6
20260510021955 15 255 0.0 0.0 0.00 0.00 0.00 87 1011.3
20260510021453 15 255 0.0 0.0 0.00 0.00 0.00 87 1011.2
20260510020950 16 255 0.0 0.0 0.00 0.00 0.00 87 1011.0
20260510020444 16 255 0.0 0.0 0.00 0.00 0.00 86 1011.1
20260510015940 16 255 0.0 0.0 0.00 0.00 0.00 86 1010.8
20260510015436 16 255 0.0 0.0 0.00 0.00 0.00 85 1010.8
20260510014931 16 255 0.0 0.0 0.00 0.00 0.00 85 1010.8
20260510014429 17 254 0.0 0.0 0.00 0.00 0.00 85 1010.5
20260510013926 17 255 0.0 0.0 0.00 0.00 0.00 84 1010.4
20260510013420 17 255 0.0 0.0 0.00 0.00 0.00 82 1010.4
20260510012916 17 255 0.0 0.0 0.00 0.00 0.00 81 1010.3
20260510012411 18 255 0.0 0.0 0.00 0.00 0.00 80 1010.2
20260510011906 18 255 0.0 0.0 0.00 0.00 0.00 79 1010.1
20260510011401 18 255 0.0 0.0 0.00 0.00 0.00 77 1010.0
20260510010858 19 255 0.0 0.0 0.00 0.00 0.00 76 1009.7
20260510010355 20 255 0.0 0.0 0.00 0.00 0.00 74 1009.9
20260510005852 20 255 0.0 0.0 0.00 0.00 0.00 72 1009.6
20260510005348 20 256 0.0 0.0 0.00 0.00 0.00 71 1009.7
20260510004846 20 256 0.0 0.0 0.00 0.00 0.00 73 1009.7
20260510004343 21 255 0.0 0.0 0.00 0.00 0.00 72 1009.4
20260510003841 21 256 0.0 0.0 0.00 0.00 0.00 70 1009.7
20260510003338 22 255 0.0 0.0 0.00 0.00 0.00 67 1009.4
20260510002836 22 255 0.0 0.0 0.00 0.00 0.00 64 1009.5
20260510002333 22 274 0.0 0.0 0.00 0.00 0.00 60 1009.5
20260510001830 23 276 0.0 0.0 0.00 0.00 0.00 57 1009.4
20260510001328 23 276 0.0 0.0 0.00 0.00 0.00 55 1009.5
20260510000824 24 276 0.0 0.0 0.00 0.00 0.00 50 1009.4
20260510000322 24 276 0.0 0.0 0.00 0.00 0.00 48 1009.6
20260509235819 25 277 0.0 0.0 0.00 0.00 0.00 47 1009.4
20260509235315 25 278 1.6 1.6 0.00 0.00 0.00 45 1009.7
20260509234811 26 277 0.0 0.0 0.00 0.00 0.00 44 1009.6
20260509234308 26 276 0.0 0.0 0.00 0.00 0.00 43 1009.5
20260509233806 26 282 0.0 0.0 0.00 0.00 0.00 42 1009.7
20260509233303 28 282 0.0 0.0 0.00 0.00 0.00 39 1009.9
20260509232759 29 279 0.0 0.0 0.00 0.00 0.00 33 1009.7
20260509232257 30 279 0.0 0.0 0.00 0.00 0.00 37 1009.7
20260509231753 30 279 0.0 0.0 0.00 0.00 0.00 39 1009.9
20260509231250 30 279 0.0 0.0 0.00 0.00 0.00 34 1009.7
20260509230748 29 283 0.0 1.6 0.00 0.00 0.00 40 1009.9
20260509230244 28 265 0.0 0.0 0.00 0.00 0.00 44 1009.7
20260509225739 26 286 0.0 0.0 0.00 0.00 0.00 41 1009.7
20260509225236 26 287 0.0 0.0 0.00 0.00 0.00 40 1009.9
20260509224731 27 276 0.0 0.0 0.00 0.00 0.00 34 1009.9
20260509224229 27 283 1.6 1.6 0.00 0.00 0.00 40 1009.9
20260509223725 27 283 0.0 0.0 0.00 0.00 0.00 44 1009.7
20260509223222 27 279 0.0 0.0 0.00 0.00 0.00 42 1010.0
20260509222719 27 272 0.0 0.0 0.00 0.00 0.00 39 1009.9
20260509222214 27 267 0.0 1.6 0.00 0.00 0.00 37 1010.0
20260509221711 28 271 0.0 1.6 0.00 0.00 0.00 41 1010.1
20260509221207 28 273 0.0 0.0 0.00 0.00 0.00 37 1009.9
20260509220703 28 273 0.0 0.0 0.00 0.00 0.00 35 1010.1
20260509220159 30 276 0.0 0.0 0.00 0.00 0.00 33 1009.9
20260509215655 28 273 0.0 0.0 0.00 0.00 0.00 36 1010.2
20260509215152 29 286 1.6 1.6 0.00 0.00 0.00 33 1010.0
20260509214649 28 285 0.0 1.6 0.00 0.00 0.00 31 1010.1
20260509214146 27 257 0.0 0.0 0.00 0.00 0.00 34 1010.1
20260509213643 27 241 1.6 1.6 0.00 0.00 0.00 35 1010.1
20260509213138 28 305 1.6 4.8 0.00 0.00 0.00 35 1010.1
20260509212636 28 266 1.6 1.6 0.00 0.00 0.00 37 1009.9
20260509212133 29 270 1.6 1.6 0.00 0.00 0.00 40 1010.1
20260509211629 28 259 3.2 4.8 0.00 0.00 0.00 34 1010.1
20260509211126 30 217 6.4 6.4 0.00 0.00 0.00 32 1010.3
20260509210622 30 270 0.0 0.0 0.00 0.00 0.00 36 1010.2
20260509210120 28 269 1.6 1.6 0.00 0.00 0.00 37 1010.4
20260509205614 28 261 0.0 1.6 0.00 0.00 0.00 33 1010.4
20260509205109 28 284 0.0 0.0 0.00 0.00 0.00 33 1010.6
20260509204605 29 237 3.2 4.8 0.00 0.00 0.00 37 1010.6
20260509204102 28 263 0.0 1.6 0.00 0.00 0.00 41 1010.7
20260509203558 28 329 3.2 4.8 0.00 0.00 0.00 32 1010.6
20260509203057 28 290 3.2 4.8 0.00 0.00 0.00 37 1010.8
20260509202556 28 299 3.2 4.8 0.00 0.00 0.00 37 1010.8
20260509202052 28 268 0.0 0.0 0.00 0.00 0.00 32 1010.8
20260509201547 28 278 3.2 4.8 0.00 0.00 0.00 35 1010.8
20260509201045 28 217 4.8 6.4 0.00 0.00 0.00 34 1010.8
20260509200544 27 280 0.0 0.0 0.00 0.00 0.00 39 1010.7
20260509200042 27 295 0.0 0.0 0.00 0.00 0.00 34 1010.8
20260509195537 28 278 0.0 1.6 0.00 0.00 0.00 34 1010.8
20260509195037 28 261 3.2 4.8 0.00 0.00 0.00 36 1011.0
20260509194532 28 267 3.2 4.8 0.00 0.00 0.00 39 1011.0
20260509194030 27 230 1.6 1.6 0.00 0.00 0.00 33 1011.0
20260509193530 27 241 0.0 0.0 0.00 0.00 0.00 34 1011.0
20260509193027 28 225 4.8 6.4 0.00 0.00 0.00 35 1011.1
20260509192524 28 256 1.6 1.6 0.00 0.00 0.00 37 1011.1
20260509192019 28 269 0.0 0.0 0.00 0.00 0.00 38 1011.3
20260509191513 28 275 0.0 1.6 0.00 0.00 0.00 34 1011.2
20260509191009 27 249 1.6 1.6 0.00 0.00 0.00 40 1011.2
20260509190506 27 243 1.6 1.6 0.00 0.00 0.00 33 1011.1
20260509190005 27 271 3.2 4.8 0.00 0.00 0.00 38 1011.3
20260509185501 27 323 3.2 4.8 0.00 0.00 0.00 42 1011.3
20260509184958 27 215 1.6 1.6 0.00 0.00 0.00 42 1011.3
20260509184457 27 205 3.2 4.8 0.00 0.00 0.00 41 1011.2
20260509183953 27 268 1.6 1.6 0.00 0.00 0.00 43 1011.3
20260509183452 26 318 4.8 6.4 0.00 0.00 0.00 35 1011.3
20260509182949 27 297 3.2 4.8 0.00 0.00 0.00 48 1011.2
20260509182445 26 213 3.2 4.8 0.00 0.00 0.00 40 1011.3
20260509181943 26 235 6.4 6.4 0.00 0.00 0.00 35 1011.3
20260509181441 27 269 1.6 1.6 0.00 0.00 0.00 40 1011.5
20260509180939 27 279 1.6 1.6 0.00 0.00 0.00 42 1011.4